DW5542 Weather Reports


Display with metric or nautical units.
time (UTC)temp
F
wind
direction
speed
MPH
gust
MPH
rain 1hr
in
rain 24hr
in
rain mn
in
humidity
%
barometer
mb
20260901200050 78 217 0.0 0.0 0.00 0.00 0.00 84 1016.5
20260901194553 78 217 0.0 0.0 0.00 0.00 0.00 84 1016.3
20260901193050 78 205 0.0 0.0 0.00 0.00 0.00 84 1015.9
20260901191605 79 194 0.0 0.0 0.00 0.00 0.00 83 1015.7
20260901190048 79 236 0.0 0.0 0.00 0.00 0.00 83 1015.7
20260901184609 79 214 0.0 0.0 0.00 0.00 0.00 82 1015.5
20260901183053 80 153 0.0 0.0 0.00 0.00 0.00 82 1015.4
20260901181557 80 187 0.0 0.0 0.00 0.00 0.00 79 1015.3
20260901180047 81 174 0.0 0.0 0.00 0.00 0.00 78 1015.2
20260901174555 81 153 0.0 0.0 0.00 0.00 0.00 76 1015.2
20260901173046 82 158 0.0 0.0 0.00 0.00 0.00 75 1015.1
20260901171544 82 211 0.0 0.0 0.00 0.00 0.00 74 1015.2
20260901170043 83 160 0.0 0.0 0.00 0.00 0.00 71 1015.2
20260901164543 84 208 0.0 1.0 0.00 0.00 0.00 68 1015.2
20260901163041 84 147 0.0 1.0 0.00 0.00 0.00 64 1015.4
20260901161555 84 152 0.0 0.0 0.00 0.00 0.00 67 1015.5
20260901160101 83 121 0.0 0.0 0.00 0.00 0.00 70 1015.5
20260901154539 82 124 0.0 0.0 0.00 0.00 0.00 71 1015.5
20260901153038 81 147 0.0 0.0 0.00 0.00 0.00 73 1015.9
20260901151538 81 145 0.0 0.0 0.00 0.00 0.00 76 1016.4
20260901150037 81 129 0.0 4.0 0.00 0.00 0.00 77 1015.5
20260901144536 81 150 0.0 3.0 0.00 0.00 0.00 77 1015.8
20260901143038 82 156 0.0 4.0 0.00 0.00 0.00 73 1015.8
20260901141540 83 222 0.0 4.0 0.00 0.00 0.00 68 1016.7
20260901140039 83 160 0.0 0.0 0.00 0.00 0.00 70 1016.6
20260901134536 83 255 0.0 0.0 0.00 0.00 0.00 71 1017.0
20260901133032 82 257 0.0 0.0 0.00 0.00 0.00 74 1017.2
20260901131530 82 199 0.0 0.0 0.00 0.00 0.00 75 1017.1
20260901130031 83 194 0.0 7.0 0.00 0.00 0.00 73 1017.1
20260901124534 83 280 0.0 5.0 0.00 0.00 0.00 73 1017.2
20260901123043 82 194 0.0 7.0 0.00 0.00 0.00 74 1017.3
20260901121528 83 158 0.0 4.0 0.00 0.00 0.00 72 1016.6
20260901120041 83 146 0.0 6.0 0.00 0.00 0.00 72 1017.1
20260901114526 84 202 0.0 4.0 0.00 0.00 0.00 70 1017.3
20260901113027 84 166 0.0 3.0 0.00 0.00 0.00 69 1017.6
20260901111528 83 177 0.0 4.0 0.00 0.00 0.00 70 1017.7
20260901110022 83 255 0.0 1.0 0.00 0.00 0.00 70 1017.8
20260901104521 84 156 0.0 4.0 0.00 0.00 0.00 71 1017.6
20260901103020 84 156 0.0 5.0 0.00 0.00 0.00 71 1017.8
20260901101517 83 174 0.0 0.0 0.00 0.00 0.00 71 1018.1
20260901100016 82 156 0.0 1.0 0.00 0.00 0.00 70 1018.2
20260901094515 82 139 0.0 3.0 0.00 0.00 0.00 69 1018.3
20260901093012 82 156 0.0 2.0 0.00 0.00 0.00 71 1018.1
20260901091510 81 122 0.0 4.0 0.00 0.00 0.00 72 1017.9
20260901090013 81 142 0.0 2.0 0.00 0.00 0.00 73 1018.1
20260901084509 81 124 0.0 1.0 0.00 0.00 0.00 75 1017.8
20260901083003 80 155 0.0 0.0 0.00 0.00 0.00 76 1017.8
20260901081500 80 148 0.0 0.0 0.00 0.00 0.00 77 1017.6
20260901080059 80 128 0.0 0.0 0.00 0.00 0.00 77 1017.6
20260901074558 80 140 0.0 0.0 0.00 0.00 0.00 76 1017.5
20260901073055 79 129 0.0 0.0 0.00 0.00 0.00 75 1017.4
20260901071554 79 113 0.0 0.0 0.00 0.00 0.00 75 1017.1
20260901070056 79 120 0.0 0.0 0.00 0.00 0.00 75 1017.0
20260901064552 78 155 0.0 0.0 0.00 0.00 0.00 77 1016.6
20260901063103 77 121 0.0 0.0 0.00 0.00 0.00 80 1016.6
20260901061558 76 121 0.0 0.0 0.00 0.00 0.00 82 1016.4
20260901060052 0 0.0 0.0 0.00 0.00 0.00 1016.5
20260901054541 0 0.0 0.0 0.00 0.00 0.00 1016.1
20260901053036 0 0.0 0.0 0.00 0.00 0.00 1016.1
20260901051540 0 0.0 0.0 0.00 0.00 0.00 1016.4
20260901050028 0 0.0 0.0 0.00 0.00 0.00 1016.2
20260901044523 0 0.0 0.0 0.00 0.00 0.00 1016.1
20260901043029 0 0.0 0.0 0.00 0.00 0.00 1016.3
20260901041514 0 0.0 0.0 0.00 0.00 0.00 1016.3
20260901040010 0 0.0 0.0 0.00 0.00 0.00 1015.5
20260901034506 75 105 0.0 0.0 0.00 0.00 0.00 83 1016.3
20260901033003 76 104 0.0 0.0 0.00 0.00 0.00 83 1016.3
20260901031502 76 104 0.0 0.0 0.00 0.00 0.00 84 1016.5
20260901024600 76 107 0.0 0.0 0.00 0.00 0.00 84 1016.5
20260901023058 76 107 0.0 0.0 0.00 0.00 0.00 84 1016.6
20260901021606 76 107 0.0 0.0 0.00 0.00 0.00 85 1016.5
20260901020109 76 107 0.0 0.0 0.00 0.00 0.00 85 1016.8
20260901014554 76 104 0.0 0.0 0.00 0.00 0.00 84 1016.8
20260901013051 77 104 0.0 0.0 0.00 0.00 0.00 84 1016.9
20260901011550 77 104 0.0 0.0 0.00 0.00 0.00 84 1017.1
20260901010049 77 104 0.0 0.0 0.00 0.00 0.00 84 1017.2
20260901004556 77 105 0.0 0.0 0.00 0.00 0.00 83 1017.3
20260901003046 78 103 0.0 0.0 0.00 0.00 0.00 83 1017.4
20260901001543 78 239 0.0 5.0 0.00 0.00 0.00 84 1017.4
20260831234543 78 117 0.0 0.0 0.00 0.00 0.00 83 1017.6
20260831233041 78 117 0.0 0.0 0.00 0.00 0.00 83 1017.6
20260831231549 78 117 0.0 0.0 0.00 0.00 0.00 83 1017.5
20260831230040 78 117 0.0 0.0 0.00 0.00 0.00 83 1017.4
20260831224539 78 117 0.0 0.0 0.00 0.00 0.00 83 1017.5
20260831223042 78 117 0.0 0.0 0.00 0.00 0.00 83 1017.4
20260831221537 78 117 0.0 0.0 0.00 0.00 0.00 83 1017.4
20260831220033 78 117 0.0 0.0 0.00 0.00 0.00 84 1017.3
20260831214532 78 117 0.0 0.0 0.00 0.00 0.00 84 1017.2
20260831213032 78 120 0.0 0.0 0.00 0.00 0.00 83 1017.1
20260831211530 78 108 0.0 0.0 0.00 0.00 0.00 83 1017.1
20260831210033 78 108 0.0 0.0 0.00 0.00 0.00 83 1016.9
20260831204529 78 110 0.0 0.0 0.00 0.00 0.00 83 1016.9
20260831203026 77 108 0.0 0.0 0.00 0.00 0.00 84 1016.6
20260831201528 77 111 0.0 0.0 0.00 0.00 0.00 83 1016.5